Date String (YYYY-MM-DD hh:mm:ss) UTC,Instrument flags,Ambient pressure (hPa),Sample flow (lpm),Bypass flow (lpm),Sample temperature (°C),Ambient temperature (°C),ASC tube jacket temperature (°C),LED temperature (°C),Box temperature (°C),Sample RH (%),Span deviation,Mass concentration (μg/m³),Mass concentration (μg/m³),Mass concentration (μg/m³)
DateTimeUTC,F1_M11,P_M11,Q1_M11,Q2_M11,T1_M11,T2_M11,T3_M11,T4_M11,T5_M11,U1_M11,ZSPAN_M11,X2_M11,X0_M11,X1_M11
2023-05-04 07:00:00,,0824.8,5.01,0.00,30.0,28.3,00.0,38.5,31.5,11.8,0000.0,0005.06,0017.45,0003.42
2023-05-04 07:01:00,,0824.9,5.01,0.00,30.0,28.3,00.0,38.5,31.5,11.9,0000.0,0005.10,0017.89,0003.42
2023-05-04 07:02:00,,0824.9,5.01,0.00,30.0,28.2,00.0,38.5,31.4,11.8,0000.0,0005.07,0017.57,0003.41
2023-05-04 07:03:00,,0824.9,4.99,0.00,29.9,28.2,00.0,38.5,31.4,11.9,0000.0,0004.99,0016.31,0003.41
2023-05-04 07:04:00,,0824.9,5.00,0.00,29.9,28.2,00.0,38.5,31.4,11.8,0000.0,0004.98,0014.23,0003.41
2023-05-04 07:05:00,,0824.9,5.01,0.00,29.9,28.1,00.0,38.4,31.4,11.8,0000.0,0005.01,0014.04,0003.42
2023-05-04 07:06:00,,0825.0,5.00,0.00,29.9,28.2,00.0,38.4,31.4,11.8,0000.0,0005.05,0012.99,0003.43
2023-05-04 07:07:00,,0825.1,5.01,0.00,29.9,28.2,00.0,38.4,31.4,11.8,0000.0,0005.10,0013.47,0003.44
2023-05-04 07:08:00,,0825.0,5.00,0.00,29.9,28.2,00.0,38.4,31.4,12.1,0000.0,0005.08,0013.26,0003.43
2023-05-04 07:09:00,,0825.0,5.00,0.00,29.9,28.3,00.0,38.4,31.5,11.9,0000.0,0005.16,0013.68,0003.43
2023-05-04 07:10:00,,0825.0,4.99,0.00,29.9,28.3,00.0,38.4,31.5,12.0,0000.0,0005.19,0013.38,0003.42
2023-05-04 07:11:00,,0824.9,4.99,0.00,29.9,28.3,00.0,38.4,31.5,11.9,0000.0,0005.16,0013.72,0003.40
2023-05-04 07:12:00,,0824.9,5.00,0.00,29.9,28.3,00.0,38.4,31.5,11.7,0000.0,0005.13,0014.82,0003.39
2023-05-04 07:13:00,,0825.0,5.00,0.00,29.9,28.3,00.0,38.4,31.5,11.7,0000.0,0005.12,0015.19,0003.40
2023-05-04 07:14:00,,0824.9,5.01,0.00,29.9,28.3,00.0,38.4,31.5,11.7,0000.0,0005.15,0015.20,0003.40
2023-05-04 07:15:00,,0824.9,5.00,0.00,29.9,28.3,00.0,38.4,31.5,11.7,0000.0,0005.17,0015.54,0003.38
2023-05-04 07:16:00,,0824.9,4.99,0.00,29.9,28.3,00.0,38.4,31.5,11.6,0000.0,0005.15,0015.43,0003.37
2023-05-04 07:17:00,,0824.9,4.99,0.00,29.9,28.3,00.0,38.4,31.5,11.6,0000.0,0005.11,0015.69,0003.35
2023-05-04 07:18:00,,0824.9,5.00,0.00,29.9,28.3,00.0,38.4,31.5,11.6,0000.0,0005.11,0015.20,0003.33
2023-05-04 07:19:00,,0825.0,5.01,0.00,29.9,28.3,00.0,38.4,31.5,11.7,0000.0,0005.11,0015.42,0003.33
2023-05-04 07:20:00,,0824.9,5.02,0.00,29.9,28.3,00.0,38.4,31.5,11.5,0000.0,0005.04,0014.65,0003.32
2023-05-04 07:21:00,,0825.0,4.99,0.00,29.9,28.3,00.0,38.4,31.4,11.5,0000.0,0004.95,0014.36,0003.32
2023-05-04 07:22:00,,0825.0,4.99,0.00,29.9,28.3,00.0,38.4,31.4,11.5,0000.0,0004.99,0014.65,0003.32
2023-05-04 07:23:00,,0825.1,5.01,0.00,29.9,28.3,00.0,38.4,31.5,11.5,0000.0,0004.94,0013.42,0003.31
2023-05-04 07:24:00,,0825.0,5.00,0.00,29.9,28.3,00.0,38.4,31.4,11.5,0000.0,0004.90,0012.82,0003.30
2023-05-04 07:25:00,,0825.0,4.99,0.00,29.9,28.3,00.0,38.4,31.4,11.6,0000.0,0004.90,0012.83,0003.29
2023-05-04 07:26:00,,0825.0,4.99,0.00,29.9,28.3,00.0,38.4,31.4,11.7,0000.0,0004.91,0013.06,0003.29
2023-05-04 07:27:00,,0825.0,5.01,0.00,29.9,28.3,00.0,38.4,31.4,11.7,0000.0,0004.96,0013.57,0003.30
2023-05-04 07:28:00,,0825.0,5.01,0.00,29.9,28.3,00.0,38.3,31.4,11.7,0000.0,0005.00,0013.50,0003.30
2023-05-04 07:29:00,,0825.0,4.99,0.00,29.9,28.3,00.0,38.3,31.4,11.7,0000.0,0004.99,0013.92,0003.31
2023-05-04 07:30:00,,0824.9,4.99,0.00,29.9,28.3,00.0,38.3,31.4,11.7,0000.0,0005.06,0014.39,0003.32
2023-05-04 07:31:00,,0824.9,4.99,0.00,29.9,28.3,00.0,38.3,31.5,11.9,0000.0,0005.06,0014.70,0003.34
2023-05-04 07:32:00,,0824.9,5.01,0.00,29.9,28.3,00.0,38.3,31.5,12.1,0000.0,0005.15,0015.25,0003.34
2023-05-04 07:33:00,,0824.9,5.00,0.00,29.9,28.3,00.0,38.3,31.5,12.1,0000.0,0005.26,0016.33,0003.35
2023-05-04 07:34:00,,0824.9,4.99,0.00,29.9,28.3,00.0,38.3,31.5,12.1,0000.0,0005.30,0016.26,0003.36
2023-05-04 07:35:00,,0824.9,5.00,0.00,29.9,28.3,00.0,38.3,31.5,12.1,0000.0,0005.38,0016.54,0003.37
2023-05-04 07:36:00,,0824.9,5.01,0.00,29.9,28.3,00.0,38.3,31.5,12.2,0000.0,0005.48,0017.23,0003.38
2023-05-04 07:37:00,,0824.9,5.00,0.00,29.9,28.3,00.0,38.3,31.5,12.2,0000.0,0005.50,0017.25,0003.38
2023-05-04 07:38:00,,0824.9,4.99,0.00,29.9,28.4,00.0,38.3,31.5,12.1,0000.0,0005.50,0016.63,0003.40
2023-05-04 07:39:00,,0824.9,5.00,0.00,29.9,28.4,00.0,38.3,31.5,12.0,0000.0,0005.45,0016.38,0003.41
2023-05-04 07:40:00,,0824.9,5.01,0.00,29.9,28.4,00.0,38.3,31.5,12.0,0000.0,0005.51,0016.15,0003.41
2023-05-04 07:41:00,,0824.9,5.00,0.00,29.9,28.4,00.0,38.3,31.5,11.9,0000.0,0005.47,0015.60,0003.42
2023-05-04 07:42:00,,0824.9,4.99,0.00,29.9,28.4,00.0,38.3,31.5,11.8,0000.0,0005.49,0015.70,0003.42
2023-05-04 07:43:00,,0824.9,5.00,0.00,29.9,28.4,00.0,38.3,31.5,11.8,0000.0,0005.53,0015.91,0003.44
2023-05-04 07:44:00,,0825.0,5.01,0.00,30.0,28.4,00.0,38.3,31.5,11.7,0000.0,0005.47,0014.85,0003.45
2023-05-04 07:45:00,,0825.1,4.99,0.00,30.0,28.4,00.0,38.3,31.5,11.6,0000.0,0005.52,0014.38,0003.47
2023-05-04 07:46:00,,0825.1,4.99,0.00,30.0,28.4,00.0,38.3,31.5,11.7,0000.0,0005.56,0014.67,0003.48
2023-05-04 07:47:00,,0825.1,5.01,0.00,30.0,28.4,00.0,38.3,31.6,11.8,0000.0,0005.53,0014.51,0003.49
2023-05-04 07:48:00,,0825.1,5.00,0.00,30.0,28.4,00.0,38.3,31.5,11.8,0000.0,0005.54,0014.19,0003.50
2023-05-04 07:49:00,,0825.1,4.99,0.00,30.0,28.4,00.0,38.3,31.5,11.7,0000.0,0005.53,0014.57,0003.50
2023-05-04 07:50:00,,0825.1,5.00,0.00,30.0,28.4,00.0,38.3,31.5,11.7,0000.0,0005.64,0015.54,0003.50
2023-05-04 07:51:00,,0825.1,5.01,0.00,30.0,28.4,00.0,38.3,31.5,11.7,0000.0,0005.61,0015.85,0003.51
2023-05-04 07:52:00,,0825.1,5.01,0.00,30.0,28.4,00.0,38.3,31.5,11.6,0000.0,0005.60,0016.02,0003.51
2023-05-04 07:53:00,,0825.1,4.98,0.00,30.0,28.4,00.0,38.3,31.4,11.6,0000.0,0005.62,0015.67,0003.50
2023-05-04 07:54:00,,0825.1,5.00,0.00,30.0,28.4,00.0,38.3,31.4,11.6,0000.0,0005.60,0015.32,0003.49
2023-05-04 07:55:00,,0825.1,5.01,0.00,29.9,28.3,00.0,38.3,31.4,11.6,0000.0,0005.56,0015.45,0003.48
2023-05-04 07:56:00,,0825.1,4.99,0.00,29.9,28.2,00.0,38.3,31.4,11.6,0000.0,0005.49,0015.52,0003.46
2023-05-04 07:57:00,,0825.1,4.98,0.00,29.9,28.2,00.0,38.3,31.4,11.6,0000.0,0005.42,0016.15,0003.44
2023-05-04 07:58:00,,0825.1,5.01,0.00,29.9,28.2,00.0,38.3,31.4,11.6,0000.0,0005.37,0015.96,0003.43
2023-05-04 07:59:00,,0825.2,5.00,0.00,29.9,28.2,00.0,38.3,31.4,11.6,0000.0,0005.29,0015.78,0003.42
